Hourly Weather Sharan

Today, 7 July, Tuesday

Time Temperature Precipitation Wind Pressure Humidity
00:00 +23°C° 0 mm 2 mps 586 mmHg 43%
01:00 +21°C° 0 mm 2 mps 586 mmHg 44%
02:00 +22°C° 0 mm 1 mps 586 mmHg 46%
03:00 +21°C° 0.1 mm 2 mps 586 mmHg 48%
04:00 +20°C° 0.1 mm 2 mps 586 mmHg 50%
05:00 +19°C° 0.1 mm 2 mps 585 mmHg 52%
06:00 +21°C° 0.1 mm 1 mps 586 mmHg 49%
07:00 +22°C° 0.1 mm 1 mps 587 mmHg 45%
08:00 +23°C° 0.1 mm 1 mps 588 mmHg 42%
09:00 +25°C° 0 mm 1 mps 588 mmHg 37%
10:00 +26°C° 0 mm 1 mps 589 mmHg 32%
11:00 +27°C° 0 mm 1 mps 589 mmHg 27%
12:00 +28°C° 0 mm 2 mps 589 mmHg 25%
13:00 +29°C° 0 mm 3 mps 589 mmHg 23%
14:00 +30°C° 0 mm 4 mps 589 mmHg 21%
15:00 +30°C° 0 mm 4 mps 589 mmHg 20%
16:00 +30°C° 0 mm 5 mps 589 mmHg 19%
17:00 +32°C° 0 mm 5 mps 589 mmHg 18%
18:00 +29°C° 0 mm 6 mps 589 mmHg 23%
19:00 +28°C° 0 mm 6 mps 589 mmHg 27%
20:00 +27°C° 0 mm 6 mps 589 mmHg 32%
21:00 +26°C° 0.5 mm 5 mps 589 mmHg 37%
22:00 +25°C° 0.5 mm 5 mps 589 mmHg 42%
23:00 +23°C° 0.5 mm 4 mps 589 mmHg 47%

Tomorrow, 8 July, Wednesday

Time Temperature Precipitation Wind Pressure Humidity
00:00 +22°C° 0.7 mm 3 mps 588 mmHg 51%
01:00 +21°C° 0.7 mm 3 mps 588 mmHg 56%
02:00 +20°C° 0.7 mm 2 mps 587 mmHg 60%
03:00 +20°C° 0.2 mm 2 mps 587 mmHg 59%
04:00 +20°C° 0.2 mm 2 mps 587 mmHg 58%
05:00 +20°C° 0.2 mm 2 mps 588 mmHg 57%
06:00 +21°C° 0 mm 2 mps 588 mmHg 53%
07:00 +23°C° 0 mm 2 mps 588 mmHg 49%
08:00 +24°C° 0 mm 2 mps 589 mmHg 45%
09:00 +25°C° 0 mm 2 mps 589 mmHg 40%
10:00 +27°C° 0 mm 2 mps 590 mmHg 35%
11:00 +28°C° 0 mm 2 mps 590 mmHg 30%
12:00 +29°C° 0 mm 2 mps 590 mmHg 26%
13:00 +30°C° 0 mm 2 mps 590 mmHg 22%
14:00 +31°C° 0 mm 3 mps 590 mmHg 17%
15:00 +33°C° 0 mm 4 mps 590 mmHg 16%
16:00 +33°C° 0 mm 4 mps 590 mmHg 16%
17:00 +34°C° 0 mm 5 mps 589 mmHg 15%
18:00 +33°C° 0 mm 5 mps 589 mmHg 17%
19:00 +32°C° 0 mm 4 mps 589 mmHg 18%
20:00 +30°C° 0 mm 4 mps 589 mmHg 20%
21:00 +29°C° 0 mm 5 mps 588 mmHg 23%
22:00 +28°C° 0 mm 5 mps 588 mmHg 27%
23:00 +27°C° 0 mm 6 mps 588 mmHg 30%

Day after tomorrow, 9 July, Thursday

Time Temperature Precipitation Wind Pressure Humidity
00:00 +26°C° 0 mm 4 mps 587 mmHg 32%
01:00 +26°C° 0 mm 3 mps 587 mmHg 35%
02:00 +25°C° 0 mm 2 mps 586 mmHg 38%
03:00 +24°C° 0 mm 2 mps 586 mmHg 40%
04:00 +24°C° 0 mm 1 mps 586 mmHg 41%
05:00 +23°C° 0 mm 1 mps 585 mmHg 43%
06:00 +24°C° 0 mm 1 mps 586 mmHg 39%
07:00 +25°C° 0 mm 1 mps 586 mmHg 34%
08:00 +26°C° 0 mm 1 mps 587 mmHg 29%
09:00 +28°C° 0 mm 2 mps 587 mmHg 24%
10:00 +29°C° 0 mm 3 mps 587 mmHg 19%
11:00 +32°C° 0 mm 4 mps 588 mmHg 14%
12:00 +32°C° 0 mm 4 mps 588 mmHg 13%
13:00 +33°C° 0 mm 4 mps 587 mmHg 12%
14:00 +34°C° 0 mm 5 mps 587 mmHg 10%
15:00 +34°C° 0 mm 5 mps 587 mmHg 9%
16:00 +35°C° 0 mm 5 mps 587 mmHg 9%
17:00 +35°C° 0 mm 6 mps 586 mmHg 8%
18:00 +34°C° 0 mm 6 mps 586 mmHg 8%
19:00 +33°C° 0 mm 6 mps 586 mmHg 9%
20:00 +30°C° 0 mm 6 mps 586 mmHg 9%
21:00 +29°C° 0 mm 5 mps 585 mmHg 13%
22:00 +28°C° 0 mm 4 mps 585 mmHg 17%
23:00 +26°C° 0 mm 2 mps 585 mmHg 21%

10 July, Friday

Time Temperature Precipitation Wind Pressure Humidity
00:00 +26°C° 0 mm 2 mps 584 mmHg 22%
01:00 +25°C° 0 mm 2 mps 584 mmHg 24%
02:00 +24°C° 0 mm 2 mps 583 mmHg 25%
03:00 +23°C° 0 mm 2 mps 583 mmHg 26%
04:00 +22°C° 0 mm 3 mps 583 mmHg 28%
05:00 +21°C° 0 mm 3 mps 583 mmHg 29%
06:00 +22°C° 0 mm 3 mps 584 mmHg 26%
07:00 +24°C° 0 mm 3 mps 584 mmHg 23%
08:00 +25°C° 0 mm 4 mps 584 mmHg 20%
09:00 +26°C° 0 mm 4 mps 585 mmHg 19%
10:00 +28°C° 0 mm 4 mps 585 mmHg 18%
11:00 +29°C° 0 mm 4 mps 586 mmHg 17%
12:00 +30°C° 0 mm 4 mps 586 mmHg 16%
13:00 +32°C° 0 mm 4 mps 585 mmHg 14%
14:00 +33°C° 0 mm 4 mps 585 mmHg 13%
15:00 +33°C° 0 mm 3 mps 585 mmHg 12%
16:00 +33°C° 0 mm 3 mps 585 mmHg 11%
17:00 +32°C° 0 mm 2 mps 584 mmHg 10%
18:00 +31°C° 0 mm 2 mps 584 mmHg 11%
19:00 +30°C° 0 mm 2 mps 584 mmHg 13%
20:00 +29°C° 0 mm 2 mps 584 mmHg 14%
21:00 +28°C° 0 mm 2 mps 584 mmHg 17%
22:00 +27°C° 0 mm 3 mps 584 mmHg 20%
23:00 +26°C° 0 mm 3 mps 584 mmHg 23%

11 July, Saturday

Time Temperature Precipitation Wind Pressure Humidity
00:00 +25°C° 0 mm 3 mps 583 mmHg 23%
01:00 +24°C° 0 mm 3 mps 583 mmHg 23%
02:00 +24°C° 0 mm 3 mps 582 mmHg 23%
03:00 +22°C° 0 mm 3 mps 582 mmHg 24%
04:00 +22°C° 0 mm 3 mps 582 mmHg 24%
05:00 +21°C° 0 mm 4 mps 582 mmHg 24%
06:00 +22°C° 0 mm 4 mps 583 mmHg 23%
07:00 +23°C° 0 mm 4 mps 583 mmHg 22%
08:00 +23°C° 0 mm 4 mps 583 mmHg 21%
09:00 +26°C° 0 mm 4 mps 584 mmHg 20%
10:00 +27°C° 0 mm 3 mps 584 mmHg 19%
11:00 +29°C° 0 mm 3 mps 584 mmHg 18%
12:00 +30°C° 0 mm 3 mps 584 mmHg 18%
13:00 +31°C° 0 mm 2 mps 584 mmHg 18%
14:00 +31°C° 0 mm 2 mps 584 mmHg 17%
15:00 +31°C° 0.2 mm 3 mps 584 mmHg 22%
16:00 +30°C° 0.2 mm 4 mps 583 mmHg 26%
17:00 +29°C° 0.2 mm 5 mps 582 mmHg 31%
18:00 +28°C° 0 mm 4 mps 583 mmHg 30%
19:00 +28°C° 0 mm 4 mps 583 mmHg 30%
20:00 +28°C° 0 mm 4 mps 583 mmHg 30%
21:00 +27°C° 0.2 mm 4 mps 583 mmHg 33%
22:00 +26°C° 0.2 mm 4 mps 583 mmHg 37%
23:00 +25°C° 0.2 mm 4 mps 583 mmHg 40%

12 July, Sunday

Time Temperature Precipitation Wind Pressure Humidity
00:00 +22°C° 0.8 mm 4 mps 583 mmHg 46%
01:00 +21°C° 0.8 mm 4 mps 583 mmHg 52%
02:00 +20°C° 0.8 mm 4 mps 582 mmHg 57%
03:00 +20°C° 0.4 mm 3 mps 582 mmHg 56%
04:00 +20°C° 0.4 mm 3 mps 583 mmHg 55%
05:00 +20°C° 0.4 mm 2 mps 583 mmHg 54%
06:00 +21°C° 0.4 mm 2 mps 583 mmHg 50%
07:00 +22°C° 0.4 mm 1 mps 584 mmHg 47%
08:00 +23°C° 0.4 mm 1 mps 584 mmHg 43%
09:00 +24°C° 0 mm 1 mps 584 mmHg 40%
10:00 +25°C° 0 mm 1 mps 585 mmHg 37%
11:00 +27°C° 0 mm 2 mps 585 mmHg 34%
12:00 +28°C° 0 mm 2 mps 586 mmHg 30%
13:00 +29°C° 0 mm 3 mps 586 mmHg 25%
14:00 +32°C° 0 mm 4 mps 586 mmHg 21%
15:00 +30°C° 0 mm 5 mps 586 mmHg 25%
16:00 +29°C° 0 mm 6 mps 585 mmHg 29%
17:00 +28°C° 0 mm 7 mps 585 mmHg 32%
18:00 +27°C° 0.1 mm 6 mps 585 mmHg 37%
19:00 +26°C° 0.1 mm 6 mps 585 mmHg 43%
20:00 +23°C° 0.1 mm 5 mps 585 mmHg 48%
21:00 +23°C° 0.5 mm 4 mps 585 mmHg 49%
22:00 +24°C° 0.5 mm 2 mps 585 mmHg 50%
23:00 +23°C° 0.5 mm 1 mps 586 mmHg 51%
Show more